This is the latest recevied weather packets stored in our database for station/object SR2CPA-13. If no packets are shown the sender has not sent any weather packets the latest 10 day(s).
| Time | Temp. | Humidity | Pressure | Rain* | Wind** | Luminosity | Snow |
|---|---|---|---|---|---|---|---|
| 1777497146 | 0.56° C | 90% | 0 hPa | 0 mm | - | - | - |
| 1777496546 | 0.56° C | 82% | 0 hPa | 0 mm | - | - | - |
| 1777495946 | 1.11° C | 72% | 0 hPa | 0 mm | - | - | - |
| 1777495346 | 1.67° C | 67% | 0 hPa | 0 mm | - | - | - |
| 1777494746 | 2.22° C | 65% | 0 hPa | 0 mm | - | - | - |
| 1777494126 | 3.33° C | 61% | 0 hPa | 0 mm | - | - | - |
| 1777493526 | 3.33° C | 60% | 0 hPa | 0 mm | - | - | - |
| 1777492906 | 3.89° C | 58% | 0 hPa | 0 mm | - | - | - |
| 1777492306 | 4.44° C | 56% | 0 hPa | 0 mm | - | - | - |
| 1777491706 | 4.44° C | 56% | 0 hPa | 0 mm | - | - | - |
| 1777491086 | 4.44° C | 55% | 0 hPa | 0 mm | - | - | - |
| 1777490486 | 5° C | 54% | 0 hPa | 0 mm | - | - | - |
| 1777489886 | 5° C | 52% | 0 hPa | 0 mm | - | - | - |
| 1777489286 | 5.56° C | 51% | 0 hPa | 0 mm | - | - | - |
| 1777488665 | 6.11° C | 48% | 0 hPa | 0 mm | - | - | - |
| 1777488046 | 6.67° C | 49% | 0 hPa | 0 mm | - | - | - |
| 1777487445 | 6.67° C | 47% | 0 hPa | 0 mm | - | - | - |
| 1777486845 | 7.78° C | 45% | 0 hPa | 0 mm | - | - | - |
| 1777486245 | 7.78° C | 44% | 0 hPa | 0 mm | - | - | - |
| 1777485646 | 8.33° C | 44% | 0 hPa | 0 mm | - | - | - |
| 1777485045 | 8.89° C | 42% | 0 hPa | 0 mm | - | - | - |
| 1777484445 | 9.44° C | 41% | 0 hPa | 0 mm | - | - | - |
| 1777483826 | 9.44° C | 40% | 0 hPa | 0 mm | - | - | - |
| 1777483225 | 10° C | 40% | 0 hPa | 0 mm | - | - | - |
| 1777482605 | 10° C | 38% | 0 hPa | 0 mm | - | - | - |
* Rain latest hour (hover to see other rain measurements)
** Current wind speed in m/s (hover to see current wind gust speed)